Location: Cucq
(50.4773°N, 1.6202°E)
Time: 06:50:58
(UTC+00:00)

Cosmos 1707 - Pass Details

Date: 07 August 2020
Orbit: 515 x 531 km, 82.5° (Epoch: 26 September)

Event Time Altitude Azimuth Distance (km) Brightness Sun altitude
Rises 01:09:38 0° 346° (NNW) 2,691 7.3 -21.4°
Reaches altitude 10° 01:11:49 10° 342° (NNW) 1,795 6.2 -21.3°
Enters shadow 01:15:40 55° 266° (W) 650 2.9 -21.1°
